NIMBUS 2 DEB, 40644

Orbit data source: Space-Track

NIMBUS 2 DEB, 40644 is space debris in SSO originally from a launch on Sun, 15 May 1966 UTC launched from the Air Force Western Test Range (AFWTR). Debris objects in space refer to the collection of defunct objects orbiting the Earth. Examples of debris include non-operational satellites, rocket bodies, and fragments generated from explosions, collisions, or faulty payload assembly.

Loading next visibility...
Identifier
40644, 1966-040BH
Orbit
SSO
Country
Flag of USUS
Related business
Manufacturer
Unknown
Mission
Spacecraft
Bus & Motor
Unknown
Mass
Unknown
Launch date (UTC)
1966-05-15 (59 years ago)
Launch vehicle
Unknown
Launch site
Air Force Western Test Range (AFWTR)
Object type
Payload
Rocket body
Debris
Shape & HBR
Unknown shape, 0.1 m
Radar Cross Section
Small (<0.1 m²)

Expand to show TLE details & history
Last TLE update: 1 day ago

TLE from 1 day ago
0 NIMBUS 2 DEB
1 40644U 66040BH  25286.04060954  .00002455  00000-0  41885-2 0  9999
2 40644 100.3277 141.8788 0055820  45.0783 315.4856 13.45389438510774
Epoch: 2025-10-13T00:58Z
TLE epoch observation values (Epoch: 2025-10-13T00:58:28.664Z)
Latitude
-0.00002°
Longitude
105.41028°
Altitude
1,062.414 km
Speed
7.335 km/s
True Right ascension
09h 27m 30s
True Declination
0° 00' 00"
Sunlit
Object was in daylight at epoch
Visualization orbit readout
Latitude
Unknown
Longitude
Unknown
Altitude
Unknown
Speed
Unknown
Apparent Right ascension
Unknown
Apparent Declination
Unknown
Sunlit
N/A
Visualization observer readout
Local Sidereal Time
04:40:17
Azimuth
Unknown
Elevation
Unknown
Doppler factor
Unknown
Orbital elements
Apogee altitude
1,128.279 km
Perigee altitude
1,044.943 km
Semi-major axis
7,464.748 km
Eccentricity
0.00558
Inclination
100.3277°
RAAN
141.8788°
Arg. of periapsis
45.0783°
True anomaly
315.03491°
Mean anomaly
315.4856°
Eccentric anomaly
315.26048°
Mean motion
3.36527 °/min
Orbital period
106.97 mins
BSTAR
0.0041885
Loading maneuver chart data...
Computing Atmospheric mass density...
Loading historical data...
Loading historical data...
Loading historical data...
Loading historical data...
Loading historical data...
Loading historical data...
Loading historical data...

Documentation

Showing up to 5 results
|